Location: Barcelona
(41.3830°N, 2.1830°E)
Time: 20:49:55
(UTC+01:00)

ISS - Pass Details

Date: 28 February 2021
Orbit: 417 x 422 km, 51.6° (Epoch: 26 February)

Event Time Altitude Azimuth Distance (km) Brightness Sun altitude
Exits shadow 05:39:31 20° 357° (N) 1,039 -1.7 -21.0°
Drops below altitude 10° 05:41:34 10° 33° (NNE) 1,499 -0.4 -20.6°
Sets 05:44:02 0° 51° (NE) 2,364 1.0 -20.1°
